Time,TemperatureF,DewpointF,PressureIn,WindDirection,WindDirectionDegrees,WindSpeedMPH,WindSpeedGustMPH,Humidity,HourlyPrecipIn,Conditions,Clouds,dailyrainin,SolarRadiationWatts/m^2,SoftwareType,DateUTC
2013-09-04 00:22:00,71.0,47.0,-100.00,SSW,197,7.0,9.0,43,0.00,,,0.00,1.000000,,2013-09-04 07:22:00,
2013-09-04 00:32:00,71.0,47.0,-100.00,SSW,197,7.0,9.0,43,0.00,,,0.00,1.000000,,2013-09-04 07:32:00,
2013-09-04 00:42:00,71.0,47.0,-100.00,SSW,197,7.0,9.0,43,0.00,,,0.00,1.000000,,2013-09-04 07:42:00,
2013-09-04 00:52:00,71.0,47.0,-100.00,SSW,197,7.0,9.0,43,0.00,,,0.00,1.000000,,2013-09-04 07:52:00,
2013-09-04 01:22:00,71.0,49.0,-100.00,SSW,196,10.0,11.0,45,0.00,,,0.00,1.000000,,2013-09-04 08:22:00,
2013-09-04 01:32:00,71.0,49.0,-100.00,SSW,196,10.0,11.0,45,0.00,,,0.00,1.000000,,2013-09-04 08:32:00,
2013-09-04 01:43:00,71.0,49.0,-100.00,SSW,196,10.0,11.0,45,0.00,,,0.00,1.000000,,2013-09-04 08:43:00,
2013-09-04 01:52:00,71.0,49.0,-100.00,SSW,196,10.0,11.0,45,0.00,,,0.00,1.000000,,2013-09-04 08:52:00,
2013-09-04 02:22:00,72.0,45.0,-100.00,SSW,192,12.0,16.0,38,0.00,,,-99.99,1.000000,,2013-09-04 09:22:00,
2013-09-04 02:33:00,72.0,45.0,-100.00,SSW,192,12.0,16.0,38,0.00,,,-99.99,1.000000,,2013-09-04 09:33:00,
2013-09-04 02:43:00,72.0,45.0,-100.00,SSW,192,12.0,16.0,38,0.00,,,-99.99,1.000000,,2013-09-04 09:43:00,
2013-09-04 02:53:00,72.0,45.0,-100.00,SSW,192,12.0,16.0,38,0.00,,,-99.99,1.000000,,2013-09-04 09:53:00,
2013-09-04 03:23:00,72.0,48.0,-100.00,SSW,197,11.0,14.0,43,0.00,,,0.00,1.000000,,2013-09-04 10:23:00,
2013-09-04 03:32:00,72.0,48.0,-100.00,SSW,197,11.0,14.0,43,0.00,,,0.00,1.000000,,2013-09-04 10:32:00,
2013-09-04 03:42:00,72.0,48.0,-100.00,SSW,197,11.0,14.0,43,0.00,,,0.00,1.000000,,2013-09-04 10:42:00,
2013-09-04 03:52:00,72.0,48.0,-100.00,SSW,197,11.0,14.0,43,0.00,,,0.00,1.000000,,2013-09-04 10:52:00,
2013-09-04 04:22:00,71.0,48.0,-100.00,SSW,194,8.0,13.0,44,0.00,,,0.00,1.000000,,2013-09-04 11:22:00,
2013-09-04 04:32:00,71.0,48.0,-100.00,SSW,194,8.0,13.0,44,0.00,,,0.00,1.000000,,2013-09-04 11:32:00,
2013-09-04 04:42:00,71.0,48.0,-100.00,SSW,194,8.0,13.0,44,0.00,,,0.00,1.000000,,2013-09-04 11:42:00,
2013-09-04 04:51:00,71.0,48.0,-100.00,SSW,194,8.0,13.0,44,0.00,,,0.00,1.000000,,2013-09-04 11:51:00,
2013-09-04 05:21:00,71.0,49.0,-100.00,SSW,194,8.0,11.0,46,0.00,,,0.00,1.000000,,2013-09-04 12:21:00,
2013-09-04 05:32:00,71.0,49.0,-100.00,SSW,194,8.0,11.0,46,0.00,,,0.00,1.000000,,2013-09-04 12:32:00,
2013-09-04 05:42:00,71.0,49.0,-100.00,SSW,194,8.0,11.0,46,0.00,,,0.00,1.000000,,2013-09-04 12:42:00,
2013-09-04 05:52:00,71.0,49.0,-100.00,SSW,194,8.0,11.0,46,0.00,,,0.00,1.000000,,2013-09-04 12:52:00,
2013-09-04 06:42:00,70.0,48.0,-100.00,South,189,9.0,11.0,46,0.00,,,0.00,1.000000,,2013-09-04 13:42:00,
2013-09-04 06:52:00,70.0,48.0,-100.00,South,189,9.0,11.0,46,0.00,,,0.00,1.000000,,2013-09-04 13:52:00,
2013-09-04 07:21:00,71.0,49.0,-100.00,South,181,6.0,10.0,46,0.00,,,0.00,12.000000,,2013-09-04 14:21:00,
2013-09-04 07:32:00,71.0,49.0,-100.00,South,181,6.0,10.0,46,0.00,,,0.00,12.000000,,2013-09-04 14:32:00,
2013-09-04 07:42:00,71.0,49.0,-100.00,South,181,6.0,10.0,46,0.00,,,0.00,12.000000,,2013-09-04 14:42:00,
2013-09-04 07:52:00,71.0,49.0,-100.00,South,181,6.0,10.0,46,0.00,,,0.00,12.000000,,2013-09-04 14:52:00,
2013-09-04 08:43:00,75.0,47.0,-100.00,South,182,7.0,10.0,37,0.00,,,0.00,180.000000,,2013-09-04 15:43:00,
2013-09-04 08:53:00,75.0,47.0,-100.00,South,182,7.0,10.0,37,0.00,,,0.00,180.000000,,2013-09-04 15:53:00,
2013-09-04 09:43:00,79.0,49.0,-100.00,South,183,7.0,11.0,35,0.00,,,0.00,438.000000,,2013-09-04 16:43:00,
2013-09-04 09:53:00,79.0,49.0,-100.00,South,183,7.0,11.0,35,0.00,,,0.00,438.000000,,2013-09-04 16:53:00,
2013-09-04 10:42:00,82.0,48.0,-100.00,South,182,9.0,12.0,31,0.00,,,0.00,547.000000,,2013-09-04 17:42:00,
2013-09-04 10:52:00,82.0,48.0,-100.00,South,182,9.0,12.0,31,0.00,,,0.00,547.000000,,2013-09-04 17:52:00,
2013-09-04 11:42:00,84.0,47.0,-100.00,South,173,9.0,17.0,28,0.00,,,0.00,634.000000,,2013-09-04 18:42:00,
2013-09-04 11:52:00,84.0,47.0,-100.00,South,173,9.0,17.0,28,0.00,,,0.00,634.000000,,2013-09-04 18:52:00,
2013-09-04 12:22:00,87.0,47.0,-100.00,South,178,11.0,19.0,25,0.00,,,0.00,802.000000,,2013-09-04 19:22:00,
2013-09-04 12:32:00,87.0,47.0,-100.00,South,178,11.0,19.0,25,0.00,,,0.00,802.000000,,2013-09-04 19:32:00,
2013-09-04 12:42:00,87.0,47.0,-100.00,South,178,11.0,19.0,25,0.00,,,0.00,802.000000,,2013-09-04 19:42:00,
2013-09-04 12:52:00,87.0,47.0,-100.00,South,178,11.0,19.0,25,0.00,,,0.00,802.000000,,2013-09-04 19:52:00,
2013-09-04 13:43:00,90.0,49.0,-100.00,SSE,166,12.0,20.0,25,0.00,,,0.00,696.000000,,2013-09-04 20:43:00,
2013-09-04 13:53:00,90.0,49.0,-100.00,SSE,166,12.0,20.0,25,0.00,,,0.00,696.000000,,2013-09-04 20:53:00,
2013-09-04 14:44:00,91.0,48.0,-100.00,South,184,13.0,21.0,23,0.00,,,0.00,1050.000000,,2013-09-04 21:44:00,
2013-09-04 14:54:00,91.0,48.0,-100.00,South,184,13.0,21.0,23,0.00,,,0.00,1050.000000,,2013-09-04 21:54:00,
2013-09-04 15:23:00,90.0,46.0,-100.00,South,188,14.0,22.0,22,0.00,,,0.00,971.000000,,2013-09-04 22:23:00,
2013-09-04 15:33:00,90.0,46.0,-100.00,South,188,14.0,22.0,22,0.00,,,0.00,971.000000,,2013-09-04 22:33:00,
2013-09-04 15:43:00,90.0,46.0,-100.00,South,188,14.0,22.0,22,0.00,,,0.00,971.000000,,2013-09-04 22:43:00,
2013-09-04 15:54:00,90.0,46.0,-100.00,South,188,14.0,22.0,22,0.00,,,0.00,971.000000,,2013-09-04 22:54:00,
2013-09-04 16:22:00,89.0,49.0,-100.00,SSW,192,14.0,25.0,25,0.00,,,0.00,823.000000,,2013-09-04 23:22:00,
2013-09-04 16:34:00,89.0,49.0,-100.00,SSW,192,14.0,25.0,25,0.00,,,0.00,823.000000,,2013-09-04 23:34:00,
2013-09-04 16:42:00,89.0,49.0,-100.00,SSW,192,14.0,25.0,25,0.00,,,0.00,823.000000,,2013-09-04 23:42:00,
2013-09-04 16:52:00,89.0,49.0,-100.00,SSW,192,14.0,25.0,25,0.00,,,0.00,823.000000,,2013-09-04 23:52:00,
2013-09-04 17:22:00,86.0,47.0,-100.00,South,184,16.0,24.0,26,0.00,,,0.00,622.000000,,2013-09-05 00:22:00,
2013-09-04 17:32:00,86.0,47.0,-100.00,South,184,16.0,24.0,26,0.00,,,0.00,622.000000,,2013-09-05 00:32:00,
2013-09-04 17:42:00,86.0,47.0,-100.00,South,184,16.0,24.0,26,0.00,,,0.00,622.000000,,2013-09-05 00:42:00,
2013-09-04 17:52:00,86.0,47.0,-100.00,South,184,16.0,24.0,26,0.00,,,0.00,622.000000,,2013-09-05 00:52:00,
2013-09-04 18:42:00,83.0,48.0,-100.00,South,180,17.0,25.0,30,0.00,,,0.00,385.000000,,2013-09-05 01:42:00,
2013-09-04 18:52:00,83.0,48.0,-100.00,South,180,17.0,25.0,30,0.00,,,0.00,385.000000,,2013-09-05 01:52:00,
2013-09-04 19:22:00,78.0,49.0,-100.00,South,187,14.0,26.0,36,0.00,,,0.00,64.000000,,2013-09-05 02:22:00,
2013-09-04 19:32:00,78.0,49.0,-100.00,South,187,14.0,26.0,36,0.00,,,0.00,64.000000,,2013-09-05 02:32:00,
2013-09-04 19:42:00,78.0,49.0,-100.00,South,187,14.0,26.0,36,0.00,,,0.00,64.000000,,2013-09-05 02:42:00,
2013-09-04 19:52:00,78.0,49.0,-100.00,South,187,14.0,26.0,36,0.00,,,0.00,64.000000,,2013-09-05 02:52:00,
2013-09-04 20:22:00,74.0,46.0,-100.00,South,190,13.0,19.0,37,0.00,,,0.00,4.000000,,2013-09-05 03:22:00,
2013-09-04 20:34:00,74.0,46.0,-100.00,South,190,13.0,19.0,37,0.00,,,0.00,4.000000,,2013-09-05 03:34:00,
2013-09-04 20:45:00,74.0,46.0,-100.00,South,190,13.0,19.0,37,0.00,,,0.00,4.000000,,2013-09-05 03:45:00,
2013-09-04 20:54:00,74.0,46.0,-100.00,South,190,13.0,19.0,37,0.00,,,0.00,4.000000,,2013-09-05 03:54:00,
2013-09-04 21:44:00,74.0,45.0,-100.00,SSW,202,16.0,19.0,36,0.00,,,0.00,1.000000,,2013-09-05 04:44:00,
2013-09-04 21:53:00,74.0,45.0,-100.00,SSW,202,16.0,19.0,36,0.00,,,0.00,1.000000,,2013-09-05 04:53:00,
2013-09-04 22:23:00,74.0,46.0,-100.00,SSW,202,12.0,19.0,37,0.00,,,0.00,1.000000,,2013-09-05 05:23:00,
2013-09-04 22:34:00,74.0,46.0,-100.00,SSW,202,12.0,19.0,37,0.00,,,0.00,1.000000,,2013-09-05 05:34:00,
2013-09-04 22:43:00,74.0,46.0,-100.00,SSW,202,12.0,19.0,37,0.00,,,0.00,1.000000,,2013-09-05 05:43:00,
2013-09-04 22:52:00,74.0,46.0,-100.00,SSW,202,12.0,19.0,37,0.00,,,0.00,1.000000,,2013-09-05 05:52:00,
2013-09-04 23:42:00,74.0,45.0,-100.00,SSW,198,12.0,16.0,36,0.00,,,0.00,1.000000,,2013-09-05 06:42:00,
2013-09-04 23:52:00,74.0,45.0,-100.00,SSW,198,12.0,16.0,36,0.00,,,0.00,1.000000,,2013-09-05 06:52:00,